Time,TemperatureF,DewpointF,PressureIn,WindDirection,WindDirectionDegrees,WindSpeedMPH,WindSpeedGustMPH,Humidity,HourlyPrecipIn,Conditions,Clouds,dailyrainin,SoftwareType,DateUTC
2013-05-27 00:00:00,34.0,33.0,-100.00,West,276,3.0,3.0,96,0.00,,,-99.99,,2013-05-27 07:00:00,
2013-05-27 00:52:00,34.0,33.0,-100.00,West,276,3.0,3.0,96,0.00,,,-99.99,,2013-05-27 07:52:00,
2013-05-27 01:00:00,33.0,33.0,-100.00,West,276,3.0,3.0,99,0.00,,,-99.99,,2013-05-27 08:00:00,
2013-05-27 01:52:00,33.0,33.0,-100.00,West,276,3.0,3.0,99,0.00,,,-99.99,,2013-05-27 08:52:00,
2013-05-27 02:00:00,33.0,32.0,-100.00,West,264,3.0,5.0,97,0.00,,,-99.99,,2013-05-27 09:00:00,
2013-05-27 02:53:00,33.0,32.0,-100.00,West,264,3.0,5.0,97,0.00,,,-99.99,,2013-05-27 09:53:00,
2013-05-27 03:00:00,32.0,31.0,-100.00,SW,227,3.0,7.0,96,0.00,,,-99.99,,2013-05-27 10:00:00,
2013-05-27 03:52:00,32.0,31.0,-100.00,SW,227,3.0,7.0,96,0.00,,,-99.99,,2013-05-27 10:52:00,
2013-05-27 04:00:00,32.0,30.0,-100.00,WSW,238,3.0,6.0,94,0.00,,,-99.99,,2013-05-27 11:00:00,
2013-05-27 04:52:00,32.0,30.0,-100.00,WSW,238,3.0,6.0,94,0.00,,,-99.99,,2013-05-27 11:52:00,
2013-05-27 05:00:00,32.0,30.0,-100.00,West,276,5.0,8.0,91,0.00,,,-99.99,,2013-05-27 12:00:00,
2013-05-27 05:52:00,32.0,30.0,-100.00,West,276,5.0,8.0,91,0.00,,,-99.99,,2013-05-27 12:52:00,
2013-05-27 06:00:00,34.0,31.0,-100.00,WSW,245,5.0,9.0,89,0.00,,,-99.99,,2013-05-27 13:00:00,
2013-05-27 06:52:00,34.0,31.0,-100.00,WSW,245,5.0,9.0,89,0.00,,,-99.99,,2013-05-27 13:52:00,
2013-05-27 07:00:00,35.0,32.0,-100.00,SSW,212,6.0,8.0,90,0.00,,,-99.99,,2013-05-27 14:00:00,
2013-05-27 07:52:00,35.0,32.0,-100.00,SSW,212,6.0,8.0,90,0.00,,,-99.99,,2013-05-27 14:52:00,
2013-05-27 08:00:00,36.0,33.0,-100.00,ESE,106,6.0,7.0,90,0.00,,,-99.99,,2013-05-27 15:00:00,
2013-05-27 08:53:00,36.0,33.0,-100.00,ESE,106,6.0,7.0,90,0.00,,,-99.99,,2013-05-27 15:53:00,
2013-05-27 09:00:00,35.0,33.0,-100.00,SE,124,5.0,7.0,91,0.02,,,-99.99,,2013-05-27 16:00:00,
2013-05-27 09:52:00,35.0,33.0,-100.00,SE,124,5.0,7.0,91,0.02,,,-99.99,,2013-05-27 16:52:00,
2013-05-27 11:00:00,36.0,34.0,-100.00,SE,130,5.0,7.0,92,0.03,,,-99.99,,2013-05-27 18:00:00,
2013-05-27 11:52:00,36.0,34.0,-100.00,SE,130,5.0,7.0,92,0.03,,,-99.99,,2013-05-27 18:52:00,
2013-05-27 12:00:00,37.0,35.0,-100.00,SE,134,3.0,6.0,91,0.02,,,-99.99,,2013-05-27 19:00:00,
2013-05-27 12:52:00,37.0,35.0,-100.00,SE,134,3.0,6.0,91,0.02,,,-99.99,,2013-05-27 19:52:00,
2013-05-27 14:00:00,37.0,35.0,-100.00,ESE,117,3.0,5.0,92,0.05,,,-99.99,,2013-05-27 21:00:00,
2013-05-27 14:53:00,37.0,35.0,-100.00,ESE,117,3.0,5.0,92,0.05,,,-99.99,,2013-05-27 21:53:00,
2013-05-27 15:00:00,37.0,35.0,-100.00,ESE,122,3.0,5.0,93,0.05,,,-99.99,,2013-05-27 22:00:00,
2013-05-27 15:53:00,37.0,35.0,-100.00,ESE,122,3.0,5.0,93,0.05,,,-99.99,,2013-05-27 22:53:00,
2013-05-27 16:00:00,38.0,37.0,-100.00,SSW,203,3.0,6.0,95,0.02,,,-99.99,,2013-05-27 23:00:00,
2013-05-27 16:52:00,38.0,37.0,-100.00,SSW,203,3.0,6.0,95,0.02,,,-99.99,,2013-05-27 23:52:00,
2013-05-27 18:00:00,39.0,37.0,-100.00,WSW,242,3.0,6.0,94,0.01,,,-99.99,,2013-05-28 01:00:00,
2013-05-27 18:52:00,39.0,37.0,-100.00,WSW,242,3.0,6.0,94,0.01,,,-99.99,,2013-05-28 01:52:00,
2013-05-27 19:00:00,37.0,36.0,-100.00,WSW,245,3.0,12.0,96,0.10,,,-99.99,,2013-05-28 02:00:00,
2013-05-27 19:52:00,37.0,36.0,-100.00,WSW,245,3.0,12.0,96,0.10,,,-99.99,,2013-05-28 02:52:00,
2013-05-27 20:00:00,36.0,35.0,-100.00,West,265,3.0,12.0,97,0.00,,,-99.99,,2013-05-28 03:00:00,
2013-05-27 20:53:00,36.0,35.0,-100.00,West,265,3.0,12.0,97,0.00,,,-99.99,,2013-05-28 03:53:00,
2013-05-27 21:00:00,36.0,35.0,-100.00,West,266,3.0,9.0,98,0.00,,,-99.99,,2013-05-28 04:00:00,
2013-05-27 21:53:00,36.0,35.0,-100.00,West,266,3.0,9.0,98,0.00,,,-99.99,,2013-05-28 04:53:00,
2013-05-27 22:00:00,35.0,34.0,-100.00,West,268,3.0,6.0,98,0.00,,,-99.99,,2013-05-28 05:00:00,
2013-05-27 22:52:00,35.0,34.0,-100.00,West,268,3.0,6.0,98,0.00,,,-99.99,,2013-05-28 05:52:00,
2013-05-27 23:00:00,36.0,35.0,-100.00,West,272,3.0,5.0,98,0.00,,,-99.99,,2013-05-28 06:00:00,
2013-05-27 23:52:00,36.0,35.0,-100.00,West,272,3.0,5.0,98,0.00,,,-99.99,,2013-05-28 06:52:00,